FW7040 Weather Reports


time (UTC)temp
C
wind
direction
speed
KPH
gust
KPH
rain 1hr
cm
rain 24hr
cm
rain mn
cm
humidity
%
barometer
mb
20260507005631 17 350 6.4 11.3 0.00 0.00 0.00 82 1015.8
20260507005127 17 341 4.8 9.7 0.00 0.00 0.00 82 1016.1
20260507004624 17 341 3.2 6.4 0.00 0.00 0.00 82 1016.0
20260507004122 17 270 1.6 3.2 0.00 0.00 0.00 82 1015.8
20260507003618 17 352 0.0 4.8 0.00 0.00 0.00 82 1015.8
20260507003113 17 0 4.8 8.0 0.00 0.00 0.00 82 1015.3
20260507002610 17 358 6.4 11.3 0.00 0.00 0.00 82 1015.4
20260507002105 17 342 3.2 8.0 0.00 0.00 0.00 82 1015.8
20260507001603 17 323 6.4 14.5 0.00 0.00 0.00 82 1015.2
20260507001100 17 335 8.0 11.3 0.00 0.00 0.00 82 1015.5
20260507000556 17 301 6.4 11.3 0.00 0.00 0.00 82 1015.6
20260507000052 17 281 4.8 8.0 0.00 0.00 0.00 82 1015.3
20260506235550 17 343 4.8 11.3 0.00 0.00 0.00 82 1015.6
20260506235044 16 310 4.8 16.1 0.00 0.00 0.00 82 1015.5
20260506234542 17 276 8.0 11.3 0.00 0.00 0.00 82 1015.2
20260506234039 17 60 3.2 17.7 0.00 0.00 0.00 82 1015.3
20260506233536 17 312 6.4 12.9 0.00 0.00 0.00 82 1015.7
20260506233033 16 345 8.0 17.7 0.00 0.00 0.00 82 1015.5
20260506232529 17 344 6.4 17.7 0.00 0.00 0.00 82 1015.1
20260506232025 17 7 3.2 11.3 0.00 0.00 0.00 82 1015.1
20260506231522 17 26 6.4 12.9 0.00 0.00 0.00 82 1015.4
20260506231020 17 292 8.0 9.7 0.00 0.00 0.00 82 1015.3
20260506230516 17 54 1.6 8.0 0.00 0.00 0.00 82 1015.2
20260506230014 16 346 6.4 14.5 0.00 0.00 0.00 83 1015.3
20260506225511 16 3 11.3 12.9 0.00 0.00 0.00 82 1015.4
20260506225007 16 26 12.9 12.9 0.00 0.00 0.00 82 1015.2
20260506224504 16 359 9.7 16.1 0.00 0.00 0.00 82 1015.4
20260506224000 16 356 3.2 16.1 0.00 0.00 0.00 82 1015.2
20260506223456 16 59 3.2 8.0 0.00 0.00 0.00 83 1015.4
20260506222953 16 5 6.4 16.1 0.00 0.00 0.00 82 1015.2
20260506222450 16 302 4.8 8.0 0.00 0.00 0.00 83 1015.2
20260506221946 16 2 12.9 17.7 0.00 0.00 0.00 83 1015.2
20260506221444 16 303 3.2 24.1 0.00 0.00 0.00 83 1015.0
20260506220942 16 293 9.7 17.7 0.00 0.00 0.00 83 1015.3
20260506220437 16 358 0.0 17.7 0.00 0.00 0.00 82 1015.1
20260506215934 16 3 14.5 17.7 0.00 0.00 0.00 83 1015.1
20260506215430 16 357 9.7 17.7 0.00 0.00 0.00 82 1015.4
20260506214926 16 9 6.4 17.7 0.00 0.00 0.00 81 1015.3
20260506214423 16 333 9.7 24.1 0.00 0.00 0.00 81 1015.4
20260506213921 17 336 6.4 19.3 0.00 0.00 0.00 81 1015.2
20260506213418 17 357 3.2 17.7 0.00 0.00 0.00 81 1015.0
20260506212915 17 308 6.4 20.9 0.00 0.00 0.00 81 1015.0
20260506212411 17 300 6.4 17.7 0.00 0.00 0.00 81 1015.1
20260506211906 17 300 4.8 20.9 0.00 0.00 0.00 81 1015.0
20260506211402 17 294 11.3 14.5 0.00 0.00 0.00 81 1015.2
20260506210900 17 359 14.5 20.9 0.00 0.00 0.00 81 1015.0
20260506210356 17 354 8.0 19.3 0.00 0.00 0.00 82 1015.1
20260506205854 17 345 9.7 20.9 0.00 0.00 0.00 81 1015.2
20260506205349 17 342 8.0 19.3 0.00 0.00 0.00 81 1015.1
20260506204846 17 346 12.9 16.1 0.00 0.00 0.00 82 1015.5
20260506204344 17 349 12.9 22.5 0.00 0.00 0.00 82 1015.6
20260506203841 17 308 9.7 24.1 0.00 0.00 0.00 81 1015.4
20260506203338 17 345 14.5 20.9 0.00 0.00 0.00 81 1015.4
20260506202835 17 318 9.7 25.7 0.00 0.00 0.00 81 1015.5
20260506202332 17 49 4.8 22.5 0.00 0.00 0.00 81 1015.5
20260506201828 18 309 12.9 17.7 0.00 0.00 0.00 81 1015.5
20260506201326 18 336 19.3 30.6 0.00 0.00 0.00 80 1015.2
20260506200823 18 358 9.7 25.7 0.00 0.00 0.00 80 1015.1
20260506200319 18 37 6.4 25.7 0.00 0.00 0.00 80 1015.1
20260506195815 18 306 11.3 16.1 0.00 0.00 0.00 81 1015.0
20260506195312 18 338 16.1 22.5 0.00 0.00 0.00 81 1015.0
20260506194809 19 288 9.7 22.5 0.00 0.00 0.00 81 1014.9
20260506194305 19 314 11.3 22.5 0.00 0.00 0.00 81 1014.8
20260506193803 20 14 11.3 12.9 0.00 0.00 0.00 81 1015.1
20260506193300 20 306 4.8 11.3 0.00 0.00 0.00 81 1014.8
20260506192756 20 21 3.2 8.0 0.00 0.00 0.00 83 1014.6
20260506192253 19 317 8.0 20.9 0.00 0.00 0.00 83 1015.0
20260506191750 19 348 9.7 22.5 0.00 0.00 0.00 83 1014.7
20260506191246 19 329 8.0 24.1 0.00 0.00 0.00 83 1015.0
20260506190744 20 342 9.7 24.1 0.00 0.00 0.00 83 1014.9
20260506190240 20 278 14.5 27.4 0.00 0.00 0.00 84 1014.7
20260506185737 20 254 14.5 27.4 0.00 0.00 0.00 84 1014.9
20260506185234 20 289 19.3 33.8 0.00 0.00 0.00 83 1015.0
20260506184731 21 283 14.5 35.4 0.00 0.00 0.00 82 1014.8
20260506184228 22 279 19.3 29.0 0.00 0.00 0.00 81 1014.7
20260506183725 23 292 14.5 19.3 0.00 0.00 0.00 80 1014.5
20260506183220 23 294 11.3 14.5 0.00 0.00 0.00 79 1014.5
20260506182718 23 283 9.7 12.9 0.00 0.00 0.00 78 1014.5
20260506182215 23 63 3.2 17.7 0.00 0.00 0.00 77 1014.3
20260506181713 23 61 4.8 17.7 0.00 0.00 0.00 77 1014.2
20260506181210 24 351 4.8 9.7 0.00 0.00 0.00 75 1014.2
20260506180707 24 315 4.8 4.8 0.00 0.00 0.00 74 1014.4
20260506180203 23 201 0.0 4.8 0.00 0.00 0.00 76 1014.5
20260506175659 23 115 3.2 9.7 0.00 0.00 0.00 75 1014.4
20260506175156 24 124 8.0 9.7 0.00 0.00 0.00 73 1014.5
20260506174649 24 95 0.0 11.3 0.00 0.00 0.00 75 1014.2
20260506174145 23 126 6.4 12.9 0.00 0.00 0.00 75 1014.1
20260506173643 22 135 0.0 11.3 0.00 0.00 0.00 76 1014.2
20260506173134 22 165 0.0 1.6 0.00 0.00 0.00 78 1014.4
20260506172631 21 114 4.8 8.0 0.00 0.00 0.00 78 1014.2
20260506172127 22 71 3.2 9.7 0.00 0.00 0.00 77 1014.2
20260506171625 21 90 3.2 9.7 0.00 0.00 0.00 79 1014.4
20260506171122 21 70 3.2 11.3 0.00 0.00 0.00 79 1014.5
20260506170619 21 71 6.4 11.3 0.00 0.00 0.00 81 1014.6
20260506170111 21 76 4.8 17.7 0.00 0.00 0.00 82 1014.5
20260506165610 20 53 0.0 12.9 0.00 0.00 0.00 83 1014.3
20260506165105 20 96 1.6 6.4 0.00 0.00 0.00 85 1014.4
20260506164603 20 90 0.0 4.8 0.00 0.00 0.00 86 1014.6
20260506164100 20 117 0.0 8.0 0.00 0.00 0.00 87 1014.7
20260506163555 19 90 3.2 11.3 0.00 0.00 0.00 87 1014.7
20260506163051 19 196 0.0 9.7 0.00 0.00 0.00 88 1014.7
20260506162548 17 53 6.4 8.0 0.00 0.00 0.00 87 1015.2
20260506162045 17 252 3.2 8.0 0.00 0.00 0.00 87 1015.3
20260506161543 17 114 3.2 14.5 0.00 0.00 0.00 87 1015.0
20260506161039 17 52 6.4 6.4 0.00 0.00 0.00 86 1016.2
20260506160537 17 2 4.8 14.5 0.00 0.00 0.00 86 1016.6
20260506160034 17 273 17.7 22.5 0.00 0.00 0.00 86 1017.2
20260506155532 17 315 14.5 22.5 0.00 0.00 0.00 86 1016.1
20260506153709 18 350 12.9 32.2 0.00 0.00 0.00 87 1014.9
20260506153207 18 0 4.8 33.8 0.00 0.00 0.00 87 1014.5
20260506152703 19 348 17.7 32.2 0.00 0.00 0.00 87 1014.9
20260506152201 19 307 11.3 38.6 0.00 0.00 0.00 87 1014.6
20260506151700 19 20 16.1 37.0 0.00 0.00 0.00 87 1014.7
20260506151156 20 14 16.1 27.4 0.00 0.00 0.00 86 1014.3
20260506150652 20 9 9.7 32.2 0.00 0.00 0.00 87 1014.5
20260506150150 21 18 11.3 30.6 0.00 0.00 0.00 86 1014.4
20260506145646 23 299 4.8 24.1 0.00 0.00 0.00 85 1014.2
20260506145143 25 106 0.0 4.8 0.00 0.00 0.00 88 1013.9
20260506144641 25 90 3.2 6.4 0.00 0.00 0.00 88 1013.6
20260506144137 25 113 4.8 9.7 0.00 0.00 0.00 88 1013.3
20260506143635 25 115 8.0 12.9 0.00 0.00 0.00 88 1012.7
20260506143133 25 120 16.1 16.1 0.00 0.00 0.00 88 1013.2
20260506142631 25 115 9.7 9.7 0.00 0.00 0.00 89 1012.8
20260506142129 25 117 8.0 9.7 0.00 0.00 0.00 89 1012.7
20260506141626 25 144 8.0 9.7 0.00 0.00 0.00 89 1012.5
20260506141125 25 110 3.2 8.0 0.00 0.00 0.00 89 1012.5
20260506140622 25 82 1.6 9.7 0.00 0.00 0.00 89 1012.5
20260506140119 24 108 8.0 9.7 0.00 0.00 0.00 90 1012.9
20260506135615 24 90 4.8 9.7 0.00 0.00 0.00 90 1012.8
20260506135112 24 99 6.4 11.3 0.00 0.00 0.00 90 1013.0
20260506134608 24 95 0.0 11.3 0.00 0.00 0.00 90 1012.7
20260506134104 24 121 0.0 12.9 0.00 0.00 0.00 90 1012.4
20260506133602 24 105 0.0 8.0 0.00 0.00 0.00 90 1012.5
20260506133059 24 124 4.8 8.0 0.00 0.00 0.00 90 1012.5
20260506132556 24 87 4.8 6.4 0.00 0.00 0.00 90 1012.5
20260506132053 24 120 0.0 8.0 0.00 0.00 0.00 91 1012.4
20260506131550 24 112 4.8 8.0 0.00 0.00 0.00 91 1012.6
20260506131046 24 113 3.2 12.9 0.00 0.00 0.00 91 1012.4
20260506130543 24 15 0.0 8.0 0.00 0.00 0.00 91 1012.0
20260506130041 24 98 1.6 8.0 0.00 0.00 0.00 91 1011.9
20260506125539 24 85 6.4 9.7 0.00 0.00 0.00 91 1011.8
20260506125036 24 115 3.2 11.3 0.00 0.00 0.00 91 1011.7
20260506124534 23 121 3.2 8.0 0.00 0.00 0.00 91 1011.9
20260506124032 23 83 4.8 12.9 0.00 0.00 0.00 91 1011.7
20260506123529 24 106 3.2 9.7 0.00 0.00 0.00 91 1011.6
20260506123027 23 102 3.2 8.0 0.00 0.00 0.00 92 1011.6
20260506122524 23 118 0.0 8.0 0.00 0.00 0.00 91 1011.6
20260506122022 23 103 1.6 6.4 0.00 0.00 0.00 91 1011.7
20260506121519 23 98 0.0 3.2 0.00 0.00 0.00 91 1011.6
20260506121015 23 90 0.0 3.2 0.00 0.00 0.00 91 1011.7
20260506120514 23 106 0.0 4.8 0.00 0.00 0.00 91 1011.8
20260506120010 23 114 4.8 4.8 0.00 0.00 0.00 91 1011.7
20260506115508 23 81 0.0 4.8 0.00 0.00 0.00 91 1011.4
20260506115007 23 94 4.8 4.8 0.00 0.00 0.00 91 1011.6
20260506114503 23 83 0.0 4.8 0.00 0.00 0.00 91 1011.3
20260506114002 23 79 4.8 4.8 0.00 0.00 0.00 91 1011.4
20260506113459 23 90 0.0 4.8 0.00 0.00 0.00 90 1011.5
20260506112956 23 105 0.0 4.8 0.00 0.00 0.00 90 1011.5
20260506112453 23 82 1.6 4.8 0.00 0.00 0.00 90 1011.8
20260506111950 23 68 0.0 4.8 0.00 0.00 0.00 90 1011.8
20260506111449 23 342 0.0 1.6 0.00 0.00 0.00 90 1011.6
20260506110945 23 99 0.0 0.0 0.00 0.00 0.00 90 1011.7
20260506110443 23 83 0.0 3.2 0.00 0.00 0.00 90 1011.7
20260506105939 23 294 0.0 3.2 0.00 0.00 0.00 90 1011.7
20260506105436 23 83 0.0 0.0 0.00 0.00 0.00 90 1011.7
20260506104933 24 99 0.0 1.6 0.00 0.00 0.00 90 1011.8
20260506104431 24 77 1.6 1.6 0.00 0.00 0.00 90 1011.7
20260506103929 24 200 0.0 1.6 0.00 0.00 0.00 90 1011.5
20260506103427 23 188 0.0 0.0 0.00 0.00 0.00 90 1011.5
20260506102923 24 188 0.0 0.0 0.00 0.00 0.00 89 1011.4
20260506102421 24 126 0.0 1.6 0.00 0.00 0.00 90 1011.3
20260506101918 24 209 0.0 0.0 0.00 0.00 0.00 89 1011.4
20260506101414 24 203 0.0 1.6 0.00 0.00 0.00 89 1011.2
20260506100912 24 154 0.0 4.8 0.00 0.00 0.00 89 1011.1
20260506100410 24 203 0.0 3.2 0.00 0.00 0.00 89 1011.2
20260506095908 24 233 4.8 4.8 0.00 0.00 0.00 89 1011.1
20260506095406 24 183 4.8 4.8 0.00 0.00 0.00 89 1011.0
20260506094902 24 206 0.0 8.0 0.00 0.00 0.00 89 1010.8
20260506094401 24 194 0.0 8.0 0.00 0.00 0.00 89 1010.8
20260506093858 24 195 3.2 11.3 0.00 0.00 0.00 88 1010.9
20260506093355 24 172 0.0 9.7 0.00 0.00 0.00 88 1010.9
20260506092853 24 194 6.4 9.7 0.00 0.00 0.00 88 1010.8
20260506092351 24 201 4.8 6.4 0.00 0.00 0.00 88 1010.6
20260506091847 24 151 8.0 12.9 0.00 0.00 0.00 88 1010.8
20260506091345 24 148 4.8 8.0 0.00 0.00 0.00 88 1010.9
20260506090842 25 173 1.6 8.0 0.00 0.00 0.00 88 1010.6
20260506090340 25 153 6.4 9.7 0.00 0.00 0.00 88 1010.5
20260506085836 24 205 9.7 11.3 0.00 0.00 0.00 88 1010.5
20260506085332 24 143 8.0 11.3 0.00 0.00 0.00 88 1010.2
20260506084829 25 149 9.7 12.9 0.00 0.00 0.00 87 1010.4
20260506084326 25 153 8.0 11.3 0.00 0.00 0.00 87 1010.4
20260506083823 25 127 3.2 9.7 0.00 0.00 0.00 87 1010.4
20260506083320 25 133 4.8 8.0 0.00 0.00 0.00 87 1010.4
20260506082818 25 144 0.0 8.0 0.00 0.00 0.00 87 1010.7
20260506082314 25 160 4.8 8.0 0.00 0.00 0.00 86 1010.7
20260506081810 25 140 4.8 9.7 0.00 0.00 0.00 87 1010.4
20260506081308 25 164 4.8 6.4 0.00 0.00 0.00 87 1010.5
20260506080806 25 139 8.0 11.3 0.00 0.00 0.00 86 1010.8
20260506080302 25 131 3.2 9.7 0.00 0.00 0.00 86 1010.5
20260506073246 25 154 4.8 17.7 0.00 0.00 0.00 87 1010.7
20260506072743 25 148 12.9 19.3 0.00 0.00 0.00 87 1011.1
20260506072240 25 153 14.5 22.5 0.00 0.00 0.00 87 1010.9
20260506071738 25 100 4.8 24.1 0.00 0.00 0.00 87 1011.0
20260506071236 25 150 11.3 17.7 0.00 0.00 0.00 87 1011.1
20260506070732 25 152 12.9 29.0 0.00 0.00 0.00 87 1010.9
20260506070229 25 171 3.2 16.1 0.00 0.00 0.00 87 1010.9
20260506062206 25 148 14.5 20.9 0.00 0.00 0.00 87 1010.9
20260506061702 25 145 12.9 16.1 0.00 0.00 0.00 87 1010.8
20260506061200 25 140 17.7 17.7 0.00 0.00 0.00 87 1010.9
20260506060659 25 137 8.0 17.7 0.00 0.00 0.00 87 1010.9
20260506060155 24 153 19.3 24.1 0.00 0.00 0.00 87 1010.6
20260506051127 25 154 9.7 20.9 0.00 0.00 0.00 87 1010.8
20260506050625 25 151 11.3 24.1 0.00 0.00 0.00 87 1010.8
20260506050122 25 148 3.2 19.3 0.00 0.00 0.00 87 1011.0
20260506045115 25 110 3.2 16.1 0.00 0.00 0.00 87 1011.0
20260506044613 25 139 11.3 16.1 0.00 0.00 0.00 87 1010.8
20260506044110 25 124 9.7 14.5 0.00 0.00 0.00 87 1010.7
20260506043607 25 145 11.3 17.7 0.00 0.00 0.00 87 1010.7
20260506043105 25 124 9.7 16.1 0.00 0.00 0.00 87 1010.9
20260506042604 25 157 11.3 12.9 0.00 0.00 0.00 86 1010.6
20260506042102 25 149 4.8 9.7 0.00 0.00 0.00 86 1011.0
20260506041600 25 145 6.4 11.3 0.00 0.00 0.00 86 1010.9
20260506041056 25 90 4.8 11.3 0.00 0.00 0.00 86 1010.7
20260506040554 25 139 6.4 14.5 0.00 0.00 0.00 86 1010.8
20260506040050 25 128 9.7 14.5 0.00 0.00 0.00 85 1010.6
20260506035547 25 142 11.3 14.5 0.00 0.00 0.00 85 1010.6
20260506035044 25 117 8.0 16.1 0.00 0.00 0.00 85 1010.4
20260506034542 25 116 6.4 14.5 0.00 0.00 0.00 85 1010.2
20260506034038 25 113 9.7 11.3 0.00 0.00 0.00 84 1010.3
20260506033536 25 108 4.8 14.5 0.00 0.00 0.00 84 1010.2
20260506033032 26 130 8.0 16.1 0.00 0.00 0.00 83 1010.2
20260506032530 25 93 4.8 12.9 0.00 0.00 0.00 83 1010.4
20260506032026 26 121 8.0 12.9 0.00 0.00 0.00 82 1010.2
20260506031524 26 99 3.2 9.7 0.00 0.00 0.00 82 1010.2
20260506031021 26 139 8.0 12.9 0.00 0.00 0.00 82 1010.1
20260506030519 26 141 8.0 11.3 0.00 0.00 0.00 82 1010.2
20260506030016 26 106 6.4 8.0 0.00 0.00 0.00 82 1009.8
20260506025513 26 129 11.3 12.9 0.00 0.00 0.00 81 1009.9
20260506025009 26 163 3.2 8.0 0.00 0.00 0.00 80 1009.8
20260506024506 26 160 4.8 11.3 0.00 0.00 0.00 81 1009.9
20260506024002 26 125 8.0 9.7 0.00 0.00 0.00 81 1009.6
20260506023458 26 153 6.4 11.3 0.00 0.00 0.00 80 1009.5
20260506022955 26 138 4.8 9.7 0.00 0.00 0.00 80 1009.6
20260506022453 26 135 6.4 11.3 0.00 0.00 0.00 80 1009.4
20260506021951 26 123 8.0 9.7 0.00 0.00 0.00 79 1009.2
20260506021448 27 157 4.8 11.3 0.00 0.00 0.00 79 1009.0
20260506020945 26 142 3.2 8.0 0.00 0.00 0.00 79 1009.0
20260506020443 26 168 3.2 16.1 0.00 0.00 0.00 79 1009.1
20260506015940 27 114 6.4 11.3 0.00 0.00 0.00 78 1008.9
20260506015437 27 114 8.0 9.7 0.00 0.00 0.00 78 1008.8
20260506014934 27 147 6.4 11.3 0.00 0.00 0.00 77 1008.7
20260506014431 27 144 8.0 12.9 0.00 0.00 0.00 77 1008.5
20260506013927 27 119 12.9 14.5 0.00 0.00 0.00 77 1008.5
20260506013426 27 113 12.9 12.9 0.00 0.00 0.00 76 1008.7
20260506012921 27 135 6.4 9.7 0.00 0.00 0.00 76 1008.5
20260506012418 27 140 8.0 9.7 0.00 0.00 0.00 75 1008.6
20260506011915 27 123 4.8 11.3 0.00 0.00 0.00 75 1008.7
20260506011412 27 135 8.0 16.1 0.00 0.00 0.00 75 1008.7
20260506010909 27 143 14.5 16.1 0.00 0.00 0.00 75 1008.6
20260506010408 27 135 8.0 14.5 0.00 0.00 0.00 74 1008.6